"TOA5","AWS1","CR1000","7964","CR1000.Std.14","CPU:AWS1_114.CR1","64363","TBL110"
"TIMESTAMP","RECORD","Wind_spd_WVc(1)","Wind_spd_WVc(2)","Air_Temp_Avg","Humidity_Avg","SW_upper_Wm2_Avg","Rain_Tot","Press_Avg","Issui_Tot","Depth_cm","SR50A_Raw","Quality","Ground_Temp_Avg(1)","Ground_Temp_Avg(2)","SW_lower_Wm2_Avg","Albedo_Avg","SWC_per(1)","SWC_per(2)","Period(1)","Period(2)"
"TS","RN","","","","","","","","","","","","","","","","","","",""
"","","WVc","WVc","Avg","Avg","Avg","Tot","Avg","Tot","Smp","Smp","Smp","Avg","Avg","Avg","Avg","Smp","Smp","Smp","Smp"
"2017-04-13 00:00:00",283453,1.923,168.5,-1.356,45.31,0,0,860.7916,0,54.46,2.642,228,0.543,0.821,0,0,53.95,63.14,34.26,36.39
"2017-04-13 00:10:00",283454,1.799,169.8,-1.332,45.92,0,0,860.6382,0,54.46,2.642,226,0.544,0.815,0,0,53.95,63.14,34.26,36.39
"2017-04-13 00:20:00",283455,1.55,164.1,-1.115,43.9,0,0,860.5522,0,54.71,2.637,241,0.537,0.821,0,0,53.95,63.14,34.26,36.39
"2017-04-13 00:30:00",283456,1.597,174.8,-0.856,42.43,0,0,860.5612,0,54.61,2.638,239,0.534,0.827,0,0,53.9,63.08,34.25,36.38
"2017-04-13 00:40:00",283457,0.819,200.6,-0.949,42.95,0,0,860.5608,0,54.61,2.638,219,0.528,0.821,0,0,53.9,63.08,34.25,36.38
"2017-04-13 00:50:00",283458,0.9,206.2,-0.945,44.88,0,0,860.5665,0,54.37,2.641,229,0.532,0.822,0.007586854,0,53.9,63.02,34.25,36.36
"2017-04-13 01:00:00",283459,0.392,217.4,-1.304,51.5,0,0,860.6785,0,54.12,2.646,233,0.546,0.827,0,0,53.9,63.02,34.25,36.36
"2017-04-13 01:10:00",283460,0.528,195.4,-1.796,51.66,0,0,860.5697,0,53.75,2.65,189,0.546,0.828,0.007586854,0,53.9,62.96,34.25,36.35
"2017-04-13 01:20:00",283461,0.642,184.5,-1.509,48.17,0,0,860.5771,0,54.42,2.643,226,0.539,0.838,0.03793427,0,53.84,62.96,34.23,36.35
"2017-04-13 01:30:00",283462,0.703,191.1,-1.536,48.03,0,0,860.5561,0,54.58,2.641,222,0.537,0.828,0,0,53.9,62.96,34.25,36.35
"2017-04-13 01:40:00",283463,0.63,188.5,-1.401,47.56,0,0,860.5668,0,54.02,2.647,225,0.537,0.828,0.03034742,0,53.84,62.9,34.23,36.34
"2017-04-13 01:50:00",283464,0.434,170,-1.759,48.95,0,0,860.5865,0,54.17,2.647,216,0.532,0.822,0,0,53.78,62.9,34.22,36.34
"2017-04-13 02:00:00",283465,0.624,157.1,-2.166,51.96,0,0,860.4283,0,54.36,2.647,198,0.534,0.824,0,0,53.78,62.9,34.22,36.34
"2017-04-13 02:10:00",283466,0.879,168.9,-2.042,50.85,0,0,860.2242,0,54.67,2.642,252,0.539,0.821,0.01138028,0,53.78,62.84,34.22,36.32
"2017-04-13 02:20:00",283467,0.724,184,-1.503,45.77,0,0,860.1035,0,54.05,2.647,200,0.539,0.83,0.1517371,0,53.78,62.84,34.22,36.32
"2017-04-13 02:30:00",283468,0.484,150.9,-1.364,43.21,0,0,860.1846,0,54.11,2.643,200,0.539,0.817,0.1669108,0,53.78,62.78,34.22,36.31
"2017-04-13 02:40:00",283469,0.302,164.2,-0.886,40.36,0,0,860.3155,0,54.57,2.639,244,0.546,0.812,0.1858779,0,53.78,62.78,34.22,36.31
"2017-04-13 02:50:00",283470,0.365,259.3,-1.155,43.24,0,0,860.343,0,53.54,2.651,215,0.542,0.812,0.007586854,0,53.78,62.72,34.22,36.3
"2017-04-13 03:00:00",283471,0.501,165.1,-1.637,46.46,0,0,860.383,0,54.62,2.64,238,0.525,0.811,0.02276056,0,53.78,62.72,34.22,36.3
"2017-04-13 03:10:00",283472,0.37,163.6,-1.13,43.21,0,0,860.5897,0,54.29,2.645,235,0.541,0.815,0.06828168,0,53.73,62.72,34.21,36.3
"2017-04-13 03:20:00",283473,0.577,234.8,-1.403,45.45,0,0,860.6044,0,54.21,2.643,221,0.527,0.811,0,0,53.73,62.66,34.21,36.28
"2017-04-13 03:30:00",283474,0.278,187.6,-1.221,45.03,0,0,860.811,0,54.33,2.642,225,0.517,0.812,0.03793427,0,53.73,62.66,34.21,36.28
"2017-04-13 03:40:00",283475,0.816,249,-1.426,46.9,0,0,860.986,0,54.71,2.638,260,0.539,0.815,0.03034742,0,53.73,62.66,34.21,36.28
"2017-04-13 03:50:00",283476,0.652,175.1,-1.436,48.59,0,0,861.0872,0,54.36,2.643,221,0.537,0.814,0.03414084,0,53.73,62.6,34.21,36.27
"2017-04-13 04:00:00",283477,0.384,44.29,-1.397,47.27,0,0,861.1041,0,54.16,2.645,217,0.538,0.825,0,0,53.67,62.6,34.19,36.27
"2017-04-13 04:10:00",283478,0.537,211.9,-1.271,47.01,0,0,861.1568,0,54.55,2.64,228,0.529,0.824,0.03793427,0,53.67,62.6,34.19,36.27
"2017-04-13 04:20:00",283479,0.935,343.6,-0.995,46.78,0,0,861.2727,0,54.35,2.642,190,0.544,0.817,0.08724882,0,53.67,62.6,34.19,36.27
"2017-04-13 04:30:00",283480,0.716,334.4,-0.599,43.04,0,0,861.3571,0,54.1,2.641,224,0.538,0.818,0.03034742,0,53.67,62.6,34.19,36.27
"2017-04-13 04:40:00",283481,0.464,341.7,-0.5,42.2,0,0,861.2897,0,54.1,2.641,201,0.537,0.817,0,0,53.67,62.54,34.19,36.25
"2017-04-13 04:50:00",283482,0.78,306.7,-0.584,43.8,0,0,861.3571,0,54.51,2.639,206,0.532,0.821,0,0,53.67,62.54,34.19,36.25
"2017-04-13 05:00:00",283483,0.759,347.7,-0.713,43.95,0,0,861.4562,0,54.44,2.638,214,0.537,0.818,0,0,53.61,62.54,34.18,36.25
"2017-04-13 05:10:00",283484,0.594,343.7,-0.493,43.25,0,0,861.5848,0,54.36,2.639,204,0.527,0.821,0.02655399,0,53.67,62.54,34.19,36.25
"2017-04-13 05:20:00",283485,0.751,302,-0.413,42.63,0.09442353,0,861.6038,0,53.94,2.642,212,0.544,0.83,0.4248638,0.619,53.61,62.48,34.18,36.24
"2017-04-13 05:30:00",283486,0.24,115.5,-0.715,45.02,0.4367088,0,861.5727,0,54.58,2.637,248,0.54,0.828,1.20631,1.152,53.61,62.48,34.18,36.24
"2017-04-13 05:40:00",283487,0.283,278.7,-0.451,43.46,3.678583,0,861.6037,0,54.02,2.641,212,0.544,0.832,3.11061,0.92,53.61,62.48,34.18,36.24
"2017-04-13 05:50:00",283488,0.781,9.71,-0.425,45.78,8.627949,0,861.6069,0,54.1,2.642,196,0.538,0.824,5.318384,0.62,53.61,62.54,34.18,36.25
"2017-04-13 06:00:00",283489,0.379,16.08,-0.829,50.8,11.58262,0,861.7701,0,54.19,2.642,227,0.52,0.827,6.149145,0.533,53.61,62.48,34.18,36.24
"2017-04-13 06:10:00",283490,0.554,289.6,-0.765,49.81,22.3587,0,861.8546,0,54.1,2.641,200,0.517,0.822,10.92886,0.495,53.61,62.54,34.18,36.25
"2017-04-13 06:20:00",283491,0.301,105.9,-0.443,48.04,39.50444,0,861.8602,0,54.46,2.638,257,0.509,0.837,17.58633,0.446,53.56,62.48,34.17,36.24
"2017-04-13 06:30:00",283492,0.331,318.1,-0.61,49.67,43.44269,0,861.8572,0,54.19,2.639,212,0.508,0.872,19.81307,0.458,53.56,62.48,34.17,36.24
"2017-04-13 06:40:00",283493,0.396,348.4,-0.173,47.57,60.49007,0,861.9742,0,54.09,2.639,204,0.51,0.868,26.6033,0.44,53.56,62.48,34.17,36.24
"2017-04-13 06:50:00",283494,0.342,349.3,0.003,49.57,85.46782,0,862.0504,0,54.07,2.639,207,0.494,0.85,36.9816,0.433,53.61,62.48,34.18,36.24
"2017-04-13 07:00:00",283495,0.377,279.8,0.144,48.26,97.48325,0,862.0508,0,54.04,2.639,208,0.529,0.839,42.41967,0.435,53.56,62.48,34.17,36.24
"2017-04-13 07:10:00",283496,0.654,161.5,0.068,51,91.0199,0,862.0323,0,54.11,2.639,202,0.528,0.829,40.04354,0.44,53.56,62.48,34.17,36.24
"2017-04-13 07:20:00",283497,0.69,159.2,0.074,52.11,106.6018,0,862.0276,0,54.06,2.639,199,0.497,0.84,47.19566,0.443,53.5,62.42,34.15,36.23
"2017-04-13 07:30:00",283498,0.463,209.8,0.164,53.66,70.19165,0,862.1888,0,54.06,2.638,204,0.452,0.814,31.47642,0.449,53.5,62.42,34.15,36.23
"2017-04-13 07:40:00",283499,0.211,224.6,0.12,54.96,47.91225,0,862.2792,0,54.15,2.638,210,0.427,0.791,22.07816,0.46,53.5,62.42,34.15,36.23
"2017-04-13 07:50:00",283500,0.368,281.4,0.109,53.95,94.55694,0,862.3361,0,54.11,2.638,202,0.422,0.776,43.68937,0.463,53.5,62.42,34.15,36.23
"2017-04-13 08:00:00",283501,0.848,162.3,0.34,54.78,177.4677,0,862.2792,0,54.17,2.637,206,0.43,0.767,78.95231,0.445,53.5,62.42,34.15,36.23
"2017-04-13 08:10:00",283502,1.296,170.4,0.117,58.09,123.3066,0,862.2475,0,54.23,2.638,213,0.46,0.767,55.78988,0.453,53.5,62.42,34.15,36.23
"2017-04-13 08:20:00",283503,0.963,176.2,-0.075,60.75,113.8517,0,862.2201,0,54.13,2.639,203,0.465,0.767,52.38074,0.46,53.5,62.42,34.15,36.23
"2017-04-13 08:30:00",283504,0.513,288.7,-0.071,57.86,74.20339,0,862.511,0,54.47,2.636,242,0.478,0.767,34.64114,0.467,53.5,62.36,34.15,36.21
"2017-04-13 08:40:00",283505,0.564,175,-0.093,58.86,71.70988,0,862.5321,0,54.13,2.639,208,0.474,0.767,33.96994,0.474,53.5,62.36,34.15,36.21
"2017-04-13 08:50:00",283506,0.792,102.9,-0.17,60.67,71.15534,0,862.6459,0,54.2,2.639,212,0.495,0.767,33.80687,0.475,53.5,62.36,34.15,36.21
"2017-04-13 09:00:00",283507,0.64,149.8,-0.176,63.75,69.90073,0,862.7808,0,54.1,2.64,202,0.505,0.77,33.26081,0.476,53.45,62.36,34.14,36.21
"2017-04-13 09:10:00",283508,0.57,159.1,-0.247,66.29,71.49357,0,863.0105,0,54.44,2.637,232,0.507,0.774,34.22022,0.478,53.45,62.36,34.14,36.21
"2017-04-13 09:20:00",283509,0.703,180.7,-0.235,67.85,98.92213,0,863.0779,0,54.22,2.639,218,0.507,0.78,47.53819,0.48,53.5,62.36,34.15,36.21
"2017-04-13 09:30:00",283510,0.782,184.5,-0.303,70.21,105.3289,0,863.277,0,54.22,2.639,221,0.505,0.802,50.21544,0.477,53.45,62.36,34.14,36.21
"2017-04-13 09:40:00",283511,1.1,160.8,-0.431,73.39,106.0447,0,863.2948,0,54.34,2.639,219,0.506,0.814,51.0535,0.481,53.45,62.36,34.14,36.21
"2017-04-13 09:50:00",283512,0.906,175.1,-0.435,72.9,133.5441,0,863.3421,0,54.16,2.64,224,0.506,0.812,63.81782,0.478,53.39,62.3,34.13,36.2
"2017-04-13 10:00:00",283513,0.873,176.1,-0.172,72.02,161.6294,0,863.5027,0,54.19,2.638,223,0.499,0.82,76.97653,0.477,53.45,62.3,34.14,36.2
"2017-04-13 10:10:00",283514,0.647,176.5,0.138,69.14,225.5717,0,863.5173,0,54.21,2.637,240,0.456,0.85,104.6667,0.464,53.39,62.3,34.13,36.2
"2017-04-13 10:20:00",283515,0.666,155.8,0.272,69.25,208.6118,0,863.4942,0,54.27,2.636,224,0.427,0.832,96.85447,0.464,53.39,62.3,34.13,36.2
"2017-04-13 10:30:00",283516,0.799,160.4,0.44,69.84,283.7876,0,863.4756,0,54.49,2.633,261,0.473,0.776,129.0013,0.455,53.45,62.3,34.14,36.2
"2017-04-13 10:40:00",283517,0.924,176.3,0.485,71.36,258.966,0,863.4785,0,54.08,2.637,234,0.461,0.734,117.7143,0.454,53.45,62.24,34.14,36.19
"2017-04-13 10:50:00",283518,1.144,162,0.204,72.14,238.5952,0,863.541,0,55.14,2.628,289,0.461,0.708,109.9302,0.461,53.39,62.3,34.13,36.2
"2017-04-13 11:00:00",283519,1.071,167.7,0.286,71.85,294.2623,0,863.6789,0,54.15,2.638,226,0.467,0.71,134.0758,0.456,53.39,62.24,34.13,36.19
"2017-04-13 11:10:00",283520,0.846,185,0.332,73.44,236.9859,0,863.7018,0,54.18,2.636,224,0.493,0.736,109.6893,0.463,53.39,62.3,34.13,36.2
"2017-04-13 11:20:00",283521,0.582,185.1,0.669,72.81,317.4526,0,863.7059,0,53.25,2.643,202,0.503,0.763,146.7401,0.461,53.39,62.24,34.13,36.19
"2017-04-13 11:30:00",283522,1.344,192.2,0.952,69.58,448.9414,0,863.7017,0,53.57,2.64,222,0.466,0.749,200.3346,0.445,53.39,62.24,34.13,36.19
"2017-04-13 11:40:00",283523,1.215,164.9,0.79,70.83,374.9517,0,863.708,0,54.38,2.632,267,0.449,0.734,167.8432,0.447,53.39,62.24,34.13,36.19
"2017-04-13 11:50:00",283524,0.934,180.5,0.953,70.67,480.335,0,863.7059,0,53.33,2.64,252,0.421,0.774,217.1961,0.451,53.39,62.24,34.13,36.19
"2017-04-13 12:00:00",283525,0.897,192.8,2.121,65.06,987.9791,0,863.6973,0,52.62,2.641,217,0.419,0.77,436.4127,0.441,53.39,62.18,34.13,36.17
"2017-04-13 12:10:00",283526,0.938,167.9,2.816,60.41,1085.323,0,863.4611,0,51.23,2.654,188,0.449,0.764,479.8165,0.44,53.39,62.18,34.13,36.17
"2017-04-13 12:20:00",283527,0.717,90.7,2.903,59.56,899.7894,0,863.4169,0,52.46,2.641,188,0.439,0.79,391.1713,0.427,53.39,62.18,34.13,36.17
"2017-04-13 12:30:00",283528,0.955,119.4,3.12,58.91,932.7344,0,863.3662,0,53.17,2.632,185,0.389,0.763,408.0977,0.432,53.33,62.18,34.11,36.17
"2017-04-13 12:40:00",283529,0.686,157.4,3.252,58.42,614.8392,0,863.3571,0,53.05,2.636,188,0.364,0.724,259.8973,0.415,53.33,62.18,34.11,36.17
"2017-04-13 12:50:00",283530,0.834,165.6,2.818,59.38,434.703,0,863.3627,0,53.45,2.631,181,0.339,0.697,181.6595,0.411,53.33,62.18,34.11,36.17
"2017-04-13 13:00:00",283531,0.808,320.7,2.879,58.21,319.5018,0,863.2811,0,53.39,2.635,176,0.306,0.689,132.0703,0.413,53.33,62.18,34.11,36.17
"2017-04-13 13:10:00",283532,0.809,271.4,3.248,57.19,560.0371,0,863.2744,0,53.12,2.635,176,0.295,0.68,237.2221,0.407,53.33,62.18,34.11,36.17
"2017-04-13 13:20:00",283533,0.452,224,2.911,59.17,381.1806,0,863.2411,0,53.12,2.635,176,0.293,0.671,159.6454,0.414,53.33,62.18,34.11,36.17
"2017-04-13 13:30:00",283534,0.892,220.8,2.885,58.23,460.6343,0,863.2071,0,53.5,2.63,189,0.289,0.659,193.4436,0.409,53.33,62.18,34.11,36.17
"2017-04-13 13:40:00",283535,0.561,298.1,3.366,55.76,537.7001,0,863.186,0,53.34,2.633,188,0.291,0.673,217.5253,0.402,53.28,62.12,34.1,36.16
"2017-04-13 13:50:00",283536,0.473,49.9,3.691,51.97,630.2462,0,863.2723,0,53.27,2.63,192,0.289,0.651,236.1407,0.374,53.28,62.12,34.1,36.16
"2017-04-13 14:00:00",283537,0.406,257.2,3.155,56.34,393.0675,0,863.2723,0,52.86,2.637,188,0.299,0.663,136.7559,0.362,53.33,62.12,34.11,36.16
"2017-04-13 14:10:00",283538,0.545,301.2,3.058,54.85,498.8505,0,863.2723,0,52.07,2.644,187,0.296,0.674,170.8653,0.368,53.33,62.12,34.11,36.16
"2017-04-13 14:20:00",283539,0.677,243.6,3.202,53.29,321.0303,0,863.2618,0,52.04,2.647,190,0.293,0.671,123.6372,0.391,53.28,62.12,34.1,36.16
"2017-04-13 14:30:00",283540,1.125,277.3,2.385,57.47,171.3139,0,863.2723,0,52.39,2.645,212,0.31,0.636,72.19272,0.421,53.28,62.12,34.1,36.16
"2017-04-13 14:40:00",283541,0.604,274.5,2.821,57.35,276.2914,0,863.2681,0,52.62,2.639,194,0.305,0.621,139.7941,0.497,53.28,62.12,34.1,36.16
"2017-04-13 14:50:00",283542,0.613,300.8,2.901,56.4,176.0954,0,863.2639,0,52.68,2.64,192,0.299,0.616,70.49558,0.405,53.28,62.06,34.1,36.15
"2017-04-13 15:00:00",283543,0.938,252.5,2.784,55.68,192.1962,0,863.277,0,52.94,2.637,180,0.306,0.636,76.37874,0.407,53.28,62.12,34.1,36.16
"2017-04-13 15:10:00",283544,0.866,152.8,3.178,54.66,495.4009,0,863.2731,0,53.1,2.633,187,0.313,0.628,155.9813,0.318,53.33,62.06,34.11,36.15
"2017-04-13 15:20:00",283545,0.845,224.2,3.779,50.54,501.26,0,863.0522,0,52.75,2.635,186,0.287,0.67,100.6693,0.21,53.28,62.06,34.1,36.15
"2017-04-13 15:30:00",283546,0.316,245.8,3.766,50.93,298.8075,0,863.0582,0,52.38,2.639,187,0.299,0.68,66.3931,0.249,53.28,62.06,34.1,36.15
"2017-04-13 15:40:00",283547,0.723,269.4,3.524,50.16,102.4651,0,863.1162,0,52.23,2.641,192,0.321,0.704,45.99549,0.471,53.28,62.12,34.1,36.16
"2017-04-13 15:50:00",283548,0.661,286.5,3.404,51.44,135.7832,0,863.1983,0,52.38,2.642,188,0.332,0.697,30.92106,0.295,53.22,62.12,34.08,36.16
"2017-04-13 16:00:00",283549,0.789,297.8,2.773,52.82,57.29152,0,863.2908,0,52.29,2.643,189,0.347,0.665,25.48107,0.445,53.22,62.06,34.08,36.15
"2017-04-13 16:10:00",283550,0.197,230.6,2.873,53.65,71.1291,0,863.2376,0,52.16,2.644,190,0.348,0.657,32.0648,0.451,53.22,62.06,34.08,36.15
"2017-04-13 16:20:00",283551,0.418,174.4,3.009,53,95.6603,0,863.2899,0,52.48,2.641,189,0.325,0.669,40.59237,0.426,53.28,62.06,34.1,36.15
"2017-04-13 16:30:00",283552,0.73,179.2,3.039,52.08,81.31684,0,863.3518,0,52.36,2.642,180,0.329,0.675,35.71989,0.44,53.22,62,34.08,36.13
"2017-04-13 16:40:00",283553,0.844,190.8,2.839,53.01,59.48076,0,863.3584,0,52.42,2.642,188,0.33,0.701,26.97767,0.454,53.22,62,34.08,36.13
"2017-04-13 16:50:00",283554,0.789,244.9,2.998,52.25,61.32025,0,863.3752,0,52.5,2.641,189,0.333,0.724,26.94362,0.44,53.22,62.06,34.08,36.15
"2017-04-13 17:00:00",283555,0.678,157.6,2.658,54.19,43.75977,0,863.409,0,52.24,2.645,188,0.354,0.723,20.26267,0.463,53.22,62.06,34.08,36.15
"2017-04-13 17:10:00",283556,0.501,181.3,2.69,52.95,49.66703,0,863.4363,0,52.6,2.64,188,0.39,0.681,22.48336,0.455,53.22,62.06,34.08,36.15
"2017-04-13 17:20:00",283557,0.327,207.2,2.969,51.92,59.17518,0,863.6153,0,52.47,2.641,188,0.411,0.671,25.73135,0.436,53.22,62.06,34.08,36.15
"2017-04-13 17:30:00",283558,0.727,332.8,3.052,50.18,27.82407,0,863.748,0,52.5,2.64,184,0.43,0.688,13.47639,0.485,53.16,62,34.07,36.13
"2017-04-13 17:40:00",283559,0.186,182.7,2.934,50.84,20.7587,0,863.8618,0,52.37,2.643,189,0.451,0.688,10.41889,0.502,53.16,62.06,34.07,36.15
"2017-04-13 17:50:00",283560,0.098,196.8,2.598,54.86,15.09205,0,863.866,0,52.31,2.645,188,0.478,0.684,7.933454,0.526,53.16,62,34.07,36.13
"2017-04-13 18:00:00",283561,0.171,38.55,2.553,54.07,11.18901,0,863.8757,0,52.33,2.645,189,0.474,0.678,6.254656,0.562,53.16,62,34.07,36.13
"2017-04-13 18:10:00",283562,0.068,124.5,2.205,56.49,5.806942,0,863.9142,0,52.33,2.647,188,0.416,0.682,3.938632,0.692,53.16,61.94,34.07,36.12
"2017-04-13 18:20:00",283563,0,0,2.019,57.57,1.372132,0,864.044,0,52.41,2.647,189,0.347,0.737,1.876457,1.189,53.22,62,34.08,36.13
"2017-04-13 18:30:00",283564,0,0,1.679,58.66,0,0,864.0568,0,52.32,2.65,189,0.343,0.763,0.2312407,0,53.22,61.88,34.08,36.11
"2017-04-13 18:40:00",283565,0,0,1.074,62.51,0,0,864.1845,0,52.26,2.654,189,0.393,0.763,0,0,53.22,61.88,34.08,36.11
"2017-04-13 18:50:00",283566,0.046,147.4,0.495,68.56,0,0,864.2975,0,52.22,2.656,185,0.416,0.764,0,0,53.16,61.88,34.07,36.11
"2017-04-13 19:00:00",283567,0.035,147.6,0.173,68.99,0,0,864.4643,0,52.39,2.656,189,0.418,0.759,0,0,53.22,61.88,34.08,36.11
"2017-04-13 19:10:00",283568,0.016,274.6,0.251,67.71,0,0,864.4749,0,52.24,2.655,188,0.416,0.692,0.1705876,0,53.22,61.88,34.08,36.11
"2017-04-13 19:20:00",283569,0.011,344.5,0.075,69.32,0,0,864.6434,0,52.42,2.654,184,0.418,0.678,0.01137251,0,53.16,61.88,34.07,36.11
"2017-04-13 19:30:00",283570,0.032,28.95,-0.112,70.4,0,0,864.7172,0,52.32,2.659,184,0.395,0.682,0.03032669,0,53.16,61.88,34.07,36.11
"2017-04-13 19:40:00",283571,0.406,185.1,-0.626,73.88,0,0,864.7891,0,52.27,2.66,176,0.348,0.711,0,0,53.16,61.88,34.07,36.11
"2017-04-13 19:50:00",283572,0.501,185.3,-0.586,73.66,0,0,864.964,0,52.26,2.66,176,0.376,0.749,0,0,53.16,61.88,34.07,36.11
"2017-04-13 20:00:00",283573,0.577,195,-0.585,73.02,0,0,865.0175,0,52.38,2.66,177,0.422,0.801,0,0,53.16,61.88,34.07,36.11
"2017-04-13 20:10:00",283574,0.483,190.8,-0.6,72.26,0,0,865.2493,0,52.23,2.661,171,0.452,0.823,0,0,53.16,61.88,34.07,36.11
"2017-04-13 20:20:00",283575,0.505,192.3,-0.612,72.26,0,0,865.3047,0,52.13,2.662,177,0.46,0.83,0,0,53.16,61.88,34.07,36.11
"2017-04-13 20:30:00",283576,0.322,168.3,-0.793,73.46,0,0,865.3117,0,52.19,2.661,171,0.462,0.818,0,0,53.16,61.88,34.07,36.11
"2017-04-13 20:40:00",283577,0.364,177.3,-0.603,71.11,0,0,865.4063,0,52.09,2.662,177,0.463,0.811,0,0,53.16,61.82,34.07,36.09
"2017-04-13 20:50:00",283578,0.313,174.1,-0.635,71.59,0,0,865.5668,0,52.26,2.66,181,0.472,0.805,0,0,53.16,61.82,34.07,36.09
"2017-04-13 21:00:00",283579,0.242,172.5,-0.226,67.63,0,0,865.567,0,52.22,2.659,180,0.475,0.783,0.3223311,0,53.16,61.88,34.07,36.11
"2017-04-13 21:10:00",283580,0.353,166.1,-0.3,67.69,0,0,865.567,0,52.16,2.66,175,0.47,0.774,0.09480325,0,53.16,61.82,34.07,36.09
"2017-04-13 21:20:00",283581,0.498,157.2,-0.192,66.14,0,0,865.567,0,52.28,2.655,176,0.462,0.766,0.204775,0,53.16,61.88,34.07,36.11
"2017-04-13 21:30:00",283582,0.393,142.8,0.711,57.26,0,0,865.567,0,52.25,2.652,179,0.466,0.768,0.553651,0,53.16,61.82,34.07,36.09
"2017-04-13 21:40:00",283583,0.395,133.8,0.85,54.25,0,0,865.5817,0,52.21,2.654,176,0.469,0.776,0.09480325,0,53.16,61.88,34.07,36.11
"2017-04-13 21:50:00",283584,0.204,146.4,0.839,51.38,0,0,865.744,0,52.18,2.655,172,0.46,0.77,0,0,53.16,61.82,34.07,36.09
"2017-04-13 22:00:00",283585,0.165,167.8,0.762,49.64,0,0,865.8177,0,52.46,2.652,194,0.459,0.767,0,0,53.16,61.88,34.07,36.11
"2017-04-13 22:10:00",283586,0.09,152.3,0.847,45.74,0,0,865.8198,0,52.27,2.653,189,0.476,0.771,0,0,53.16,61.82,34.07,36.09
"2017-04-13 22:20:00",283587,0.268,165.2,0.153,52.74,0,0,865.8198,0,52.16,2.66,185,0.468,0.767,0,0,53.16,61.82,34.07,36.09
"2017-04-13 22:30:00",283588,0.154,169.3,-0.299,53.62,0,0,865.8198,0,52.47,2.655,188,0.438,0.766,0,0,53.16,61.88,34.07,36.11
"2017-04-13 22:40:00",283589,0.073,132.5,0.205,47.69,0,0,865.8198,0,52.16,2.657,180,0.426,0.771,0.05308982,0,53.16,61.88,34.07,36.11
"2017-04-13 22:50:00",283590,0.196,87.3,0.325,47.5,0,0,865.8219,0,52.34,2.654,193,0.421,0.777,0.2199436,0,53.16,61.88,34.07,36.11
"2017-04-13 23:00:00",283591,0.037,122.6,0.467,47.47,0,0,865.8303,0,52.3,2.655,188,0.42,0.767,0.01896065,0,53.16,61.88,34.07,36.11
"2017-04-13 23:10:00",283592,0.102,151.7,0.464,48,0,0,865.8409,0,52.28,2.654,192,0.42,0.78,0.1327246,0,53.16,61.82,34.07,36.09
"2017-04-13 23:20:00",283593,0.05,154,0.428,48.61,0,0,866.001,0,51.85,2.661,172,0.42,0.792,0.1441009,0,53.16,61.82,34.07,36.09
"2017-04-13 23:30:00",283594,0.071,127.4,0.106,50.37,0,0,866.0727,0,52.26,2.656,187,0.42,0.806,0,0,53.16,61.82,34.07,36.09
"2017-04-13 23:40:00",283595,0.157,143.5,0.251,51.47,0,0,866.0727,0,52.01,2.659,189,0.42,0.808,0.09480325,0,53.16,61.82,34.07,36.09
"2017-04-13 23:50:00",283596,0.032,159.8,0.099,52.93,0,0,866.0727,0,52.42,2.654,185,0.42,0.807,0,0,53.16,61.82,34.07,36.09
